Etusivu
METAR-TAF:

METAR-TAF

Lentoasemat :

Uppsala, Ruotsi

Leveyspiiri: 59-53N, Pituuspiiri: 017-36E, korkeus merenpinnasta: 21 m

METAR: puuttuu

Aika: 02:14 (00:14 UTC)

Sääennuste

Tämä raportti tehtiin 15 tuntia ja 49 minuuttia sitten, kello 08.25 UTC
Ennuste voimassa 28. päivästä klo 09 UTC - 28. päivään klo 14 UTC
Tuuli 5 kn pohjoisesta
Näkyvyys 10 km tai enemmän
ei pilviä alle 1500 m:ssä eikä cumulonimbus-pilviä

TAF: ESCM 280825Z 2809/2814 01005KT CAVOK RMK MIL

Säähavainnot ja -ennusteet yli 4000 lentoasemalta (METAR- ja TAF-raportit).

Käytössä olevat sääasemat on merkitty karttaan keltaisilla ja punaisilla pisteillä.

Aseta hiiri pisteen päälle nähdäksesi sääaseman nimen.

Klikkaa sitten nähdäksesi säähavainnot ja -ennusteet.

Kartan vaihtaminen: klikkaa mustalla rastilla varustettuja vihreitä pisteitä, niin voit zoomata sisään; viivalla varustettua vihreää pistettä, niin voit zoomata ulos tai vihreitä nuolia, niin pääset viereisille kartoille.


METAR-TAF: